Theta_e
304 304 303 304 303 302 302 302 302 303 302 302 303 303 303 303 303 295 290 291 290 286 288 293 295 292 291 293 291 294 295 297 297 294 293 290 290 292 293 297 293 292 291 291 293 292 291 313 315 305 309 320 317 316
304 304 303 303 303 302 302 302 302 303 303 304 303 303 303 303 303 297 287 292 292 288 289 292 295 297 297 296 292 291 295 295 299 293 293 293 294 295 294 293 301 296 297 294 296 295 307 312 311 320 322 321 317 317
304 304 305 304 303 302 302 301 302 304 302 303 303 303 303 303 302 301 292 289 289 286 288 288 291 296 295 297 297 290 294 300 298 300 297 297 293 294 292 296 297 301 305 302 301 306 311 315 317 318 319 322 320 319
303 303 303 303 303 302 302 302 302 303 302 302 302 303 303 303 304 303 296 290 289 289 287 289 298 295 299 296 297 297 298 300 300 300 296 295 294 296 294 296 296 301 304 302 303 308 311 314 319 319 318 319 319 319
303 303 303 303 303 302 302 301 302 303 302 302 303 303 303 304 304 299 293 292 292 290 285 287 293 295 297 296 297 297 295 296 296 295 296 294 296 297 297 294 295 302 302 301 301 307 307 308 317 322 318 317 317 316
303 303 304 303 303 302 302 301 301 303 302 303 303 303 303 303 303 292 290 295 298 297 291 284 291 293 296 298 295 294 296 297 297 295 296 300 301 300 295 292 298 305 308 307 306 310 312 315 319 322 320 320 319 316
303 303 303 302 302 302 301 301 301 302 302 303 303 303 303 303 299 290 291 296 301 300 294 286 286 294 298 298 294 293 296 297 297 295 295 296 301 300 296 292 300 303 308 311 313 312 310 314 313 319 320 318 315 313
303 303 303 302 302 301 301 301 301 302 302 302 302 303 303 304 303 294 296 302 299 292 296 285 286 292 300 296 295 298 293 295 295 295 296 294 296 296 292 297 302 305 305 308 314 314 311 312 315 316 316 315 312 310
303 304 303 302 302 301 301 301 301 302 302 302 303 304 298 294 292 299 307 304 297 294 287 291 287 287 297 294 296 298 297 291 294 293 293 295 292 290 295 299 302 305 303 306 311 313 313 312 312 314 314 312 310 310
303 303 303 303 302 301 301 301 302 302 302 300 298 295 296 294 305 304 296 293 295 293 295 286 287 288 293 293 293 292 293 293 290 292 295 291 290 296 302 303 304 305 306 304 304 306 310 311 313 313 313 312 311 310
303 303 303 303 302 301 300 301 301 301 296 290 288 289 291 299 295 293 293 291 294 291 290 289 289 288 295 292 291 292 291 292 290 294 292 289 292 298 303 304 306 305 306 307 304 305 307 311 313 314 313 313 313 311
303 303 303 303 302 300 300 301 301 292 289 293 292 297 291 291 289 290 289 293 292 290 293 294 294 291 294 297 292 292 291 291 288 298 295 291 299 300 301 303 305 306 306 307 309 307 306 311 313 314 314 313 313 313
303 303 303 303 302 300 300 301 301 300 296 294 289 287 289 287 280 285 287 291 292 298 300 299 293 293 295 296 293 291 290 289 296 292 293 297 302 302 301 302 304 307 308 309 308 309 307 309 312 313 312 314 314 313
303 303 303 302 301 300 300 300 300 298 290 288 286 276 283 280 285 288 290 291 297 298 298 294 291 291 292 292 294 291 293 294 291 290 292 297 298 299 301 302 303 305 308 309 309 309 307 310 312 315 314 315 315 313
303 303 303 302 301 301 300 300 300 292 289 287 288 278 284 289 290 292 294 292 296 293 292 291 292 292 291 290 292 293 292 290 289 288 296 301 302 300 300 301 305 306 308 309 307 306 310 311 311 313 313 314 314 314
303 302 297 301 301 301 301 297 292 291 290 288 288 286 288 288 291 293 292 292 296 296 294 293 288 289 292 294 292 291 292 288 292 298 299 300 300 300 301 304 309 310 308 306 308 309 310 309 310 311 311 313 313 313
300 292 300 301 302 301 301 291 291 289 289 290 286 287 286 286 286 290 293 296 297 298 294 290 285 286 291 290 288 296 293 295 295 296 298 300 300 302 305 307 308 308 308 309 309 308 308 309 309 308 306 309 310 309
291 293 303 303 298 296 292 291 289 290 288 287 285 286 290 292 292 292 293 294 293 291 290 288 290 286 289 289 291 295 295 293 298 300 301 303 305 306 308 306 306 308 308 308 309 309 309 310 309 308 309 309 309 310
294 296 301 300 295 291 290 291 290 285 287 290 293 294 297 295 293 293 294 296 297 300 297 295 290 290 291 295 294 294 297 298 299 301 303 306 308 307 306 306 306 306 306 307 306 307 308 309 309 309 310 310 308 309
302 301 301 299 297 289 289 286 290 285 284 286 291 289 289 290 296 299 299 299 298 298 295 294 294 295 296 297 299 299 300 302 302 301 302 304 306 305 305 305 305 307 307 307 307 305 308 308 309 309 309 309 308 308
295 294 298 292 291 290 288 285 285 286 287 287 288 289 290 296 296 295 295 297 296 293 293 296 297 298 300 301 303 303 303 305 304 304 302 302 306 306 305 306 306 307 306 305 305 304 305 306 308 309 309 309 309 309
291 299 291 293 290 289 285 286 286 287 288 288 290 294 293 292 292 292 294 292 292 295 296 297 298 298 299 300 304 307 307 307 307 306 304 304 304 304 305 306 305 305 305 305 306 306 306 307 308 309 309 309 309 310
297 294 291 291 286 281 282 289 287 287 285 290 293 291 291 291 292 295 291 292 293 297 298 298 299 301 302 306 306 306 307 306 305 305 306 305 306 306 305 305 306 305 305 305 307 307 307 303 305 308 309 309 309 309
297 289 286 285 285 280 289 291 291 291 291 290 289 287 288 289 293 289 286 290 295 299 300 304 305 304 305 305 304 304 305 307 306 306 307 306 304 305 306 306 306 306 307 307 307 307 308 307 303 307 308 308 308 307
281 282 284 276 289 288 287 288 288 287 286 290 288 287 289 293 288 287 287 293 295 297 299 304 305 304 303 303 304 305 307 306 305 304 305 307 306 306 306 306 307 307 308 305 303 303 302 303 302 302 301 302 303 302
279 289 286 286 285 286 287 285 285 287 290 290 289 292 293 291 287 286 291 294 295 296 298 299 302 303 303 304 304 304 305 307 307 305 305 306 306 305 304 304 304 305 307 306 304 301 301 300 299 298 298 297 294 300
284 287 291 294 292 291 288 290 291 289 292 290 291 291 290 287 286 291 296 298 297 299 300 300 301 304 303 303 303 304 305 306 306 304 304 304 305 306 306 305 304 306 309 308 306 303 301 300 299 298 298 299 299 300
288 288 286 290 289 290 289 290 291 292 293 295 294 290 288 289 290 295 296 298 299 299 299 300 301 303 303 302 302 301 297 299 300 300 299 299 298 298 300 300 299 294 298 301 303 301 300 300 300 300 300 300 300 301
288 291 291 290 292 291 293 294 294 296 297 295 292 291 292 295 297 297 297 298 297 298 299 299 298 297 297 296 296 295 296 297 297 296 295 294 296 298 298 297 295 296 297 296 292 296 299 300 301 301 300 299 298 299
294 294 294 295 293 292 294 296 294 296 297 298 298 297 296 297 298 298 297 295 296 295 295 296 295 297 297 296 296 297 296 297 297 297 295 295 297 298 299 299 297 297 297 298 299 300 296 300 298 300 299 298 297 296
297 295 295 295 294 296 298 298 299 299 299 297 297 297 296 296 297 298 297 296 295 296 297 296 296 296 296 296 296 296 296 298 298 300 300 299 299 300 301 301 301 301 301 303 302 300 299 298 297 296 295 294 293 293
297 295 294 293 294 298 300 297 297 296 297 296 295 296 296 295 294 298 301 298 297 297 297 297 297 297 298 298 298 298 294 298 299 299 300 300 301 302 302 302 303 304 303 302 300 299 297 296 295 294 293 292 292 292
295 296 297 295 295 295 297 297 296 295 296 295 295 295 295 295 294 301 304 304 301 299 298 298 297 298 299 299 299 298 295 297 294 291 292 293 293 296 302 302 302 302 300 299 298 297 296 295 293 293 293 292 291 291
Wind_Speed
10 7 7 10 9 10 10 10 11 11 11 12 12 13 13 14 13 4 3 2 3 1 6 5 4 4 1 2 2 4 3 3 4 3 1 2 2 2 2 1 3 6 7 4 2 2 6 4 1 2 2 3 3 11
9 11 10 8 8 9 10 10 12 11 11 12 13 13 12 12 12 5 2 2 2 3 7 3 6 7 5 4 4 2 3 2 2 2 0 0 2 3 2 3 1 1 4 5 7 6 3 3 2 4 4 1 3 11
11 11 12 9 8 9 9 10 11 12 12 12 13 13 13 12 10 7 2 2 3 2 6 3 5 4 4 12 4 4 3 3 1 3 2 1 1 1 1 2 0 2 2 3 2 3 3 5 5 3 3 4 4 8
9 9 8 7 8 9 9 10 11 10 11 11 13 14 13 12 11 8 1 2 2 1 3 7 4 5 3 5 10 10 1 3 2 2 2 1 1 1 1 3 1 4 3 4 2 4 4 5 4 3 1 1 5 6
11 10 10 9 10 9 9 10 10 12 12 13 14 14 14 13 12 2 3 4 3 2 3 6 10 4 7 4 9 12 4 2 2 3 2 1 2 1 1 1 3 3 5 5 6 6 4 4 3 2 3 2 1 2
12 11 10 9 10 8 9 10 11 13 13 14 15 15 14 13 10 2 3 1 5 3 1 5 4 5 4 0 7 7 6 2 2 3 2 2 3 0 2 2 5 4 3 3 1 2 3 3 1 1 3 3 4 5
13 10 8 8 8 9 9 10 11 13 15 16 16 16 14 11 1 3 3 2 6 2 2 5 6 5 4 2 2 3 3 3 4 2 2 3 3 3 1 3 6 5 6 8 2 3 2 1 1 4 1 6 10 8
13 12 10 9 8 9 9 10 12 14 17 18 19 17 12 6 4 4 3 9 5 0 1 2 6 6 4 3 1 1 3 2 2 4 2 3 2 1 3 7 7 6 7 8 7 2 3 3 3 4 4 5 6 7
14 11 10 9 8 8 9 11 13 15 18 20 18 4 4 2 1 2 3 10 1 3 0 1 2 4 5 2 1 3 2 2 0 4 4 5 2 4 4 5 7 4 6 9 5 2 3 1 4 6 6 5 6 6
13 11 11 10 7 7 8 10 13 16 19 13 1 2 1 1 11 3 4 2 1 1 1 3 1 4 1 2 2 1 2 1 1 4 2 4 4 3 3 3 7 7 6 8 1 4 4 3 6 7 6 4 4 5
14 12 10 11 7 6 7 9 12 16 6 4 3 0 3 9 3 2 1 1 2 2 3 4 5 3 2 1 2 1 1 1 1 2 4 1 1 2 6 9 8 7 7 6 7 8 6 7 7 7 7 8 8 8
14 12 9 10 7 5 5 6 9 4 1 2 2 2 2 2 3 1 2 0 3 3 2 3 4 5 3 1 2 1 1 2 4 2 2 4 2 4 6 9 11 8 8 8 6 9 9 9 8 7 6 9 9 9
14 12 10 10 7 4 4 4 7 7 4 1 1 2 3 1 4 3 2 1 2 2 4 3 3 0 3 2 0 1 1 5 1 2 3 1 2 7 6 8 11 9 8 9 10 7 8 8 4 6 6 6 10 11
15 13 10 9 7 5 4 4 6 4 2 1 2 3 3 2 4 3 3 2 4 2 3 2 2 1 1 1 1 2 4 1 1 0 1 2 3 7 9 8 9 12 13 13 12 8 8 6 5 3 5 6 9 11
13 12 12 9 7 6 4 4 4 2 1 1 2 2 4 4 3 3 2 1 2 1 2 2 2 2 2 1 0 2 2 2 3 2 2 4 10 10 10 11 12 11 11 11 8 3 6 9 8 7 5 8 9 8
12 10 4 7 8 6 4 2 2 1 0 1 2 2 2 1 3 2 1 2 2 3 1 3 2 2 1 1 2 4 2 2 1 3 5 7 11 10 10 12 8 6 8 4 4 6 7 10 12 10 8 8 9 10
9 2 4 8 8 6 4 2 1 2 2 2 3 1 2 3 3 1 1 3 4 2 2 2 1 2 2 2 2 1 2 2 4 8 7 9 10 10 9 9 5 5 4 7 10 11 11 10 9 9 12 9 9 7
2 2 5 12 8 3 1 1 1 1 3 2 1 3 2 1 1 2 2 2 3 2 1 1 1 1 2 3 1 1 2 4 6 7 8 9 9 7 3 3 5 5 8 10 9 9 10 12 10 8 8 10 12 12
4 3 9 9 4 3 2 2 2 1 2 2 2 1 1 1 1 2 2 2 2 2 1 1 2 2 2 1 2 5 6 6 7 7 7 8 4 6 7 6 7 8 10 10 9 8 7 10 8 7 7 8 8 7
7 5 4 3 3 2 0 2 1 0 1 2 2 3 2 2 3 2 3 3 2 1 2 2 2 0 2 3 4 6 7 7 6 4 2 4 4 7 7 6 5 8 9 10 9 9 9 9 7 7 7 8 8 8
4 2 2 3 1 2 1 1 1 1 0 2 2 2 3 2 2 3 3 4 2 1 2 2 2 3 4 6 6 6 7 4 3 2 2 3 5 6 7 6 7 7 7 7 8 8 9 7 7 7 8 8 8 9
1 1 2 1 2 1 1 2 2 1 2 1 2 2 2 2 2 2 3 2 2 2 2 2 4 5 6 6 5 3 3 5 5 5 6 6 7 6 6 6 6 8 7 7 7 7 7 6 6 7 9 7 7 7
2 2 2 2 2 4 4 1 3 3 3 3 2 1 2 2 3 4 1 2 3 3 4 5 7 7 2 6 8 9 7 7 6 7 7 8 8 7 7 7 5 8 8 6 5 6 6 7 8 7 5 5 6 5
3 2 3 2 2 2 2 3 2 1 2 2 2 2 2 2 3 2 2 3 3 5 4 4 3 6 6 8 7 7 6 6 8 8 6 7 8 7 6 6 6 6 4 4 5 5 5 4 5 4 4 5 4 5
4 5 4 4 1 3 3 2 2 1 1 1 2 3 2 2 2 3 4 4 6 7 6 6 7 6 6 6 6 6 7 4 7 7 6 5 7 7 8 7 7 6 3 7 6 7 5 5 5 5 5 5 7 6
3 3 2 1 1 1 0 1 1 1 2 3 3 2 2 2 4 4 4 4 3 3 5 5 4 7 7 5 6 5 4 3 6 7 4 4 5 6 6 7 6 5 4 3 5 7 7 6 7 8 6 6 8 7
1 1 1 1 0 1 0 2 1 2 3 3 1 3 3 5 5 4 3 2 2 2 2 1 3 4 3 3 4 4 4 5 6 4 3 4 5 4 4 5 5 2 3 4 5 5 5 5 5 5 5 4 4 3
2 1 2 1 1 1 1 1 1 2 2 1 1 2 3 4 2 3 2 2 2 2 3 3 3 3 4 3 3 3 4 4 5 4 3 5 5 5 5 4 4 8 4 4 4 4 4 4 5 5 6 6 7 8
1 2 1 1 2 2 2 1 2 1 3 2 3 2 2 1 2 1 2 1 1 3 4 4 3 3 4 4 4 4 3 4 7 9 7 4 4 5 4 3 4 4 4 6 10 6 6 6 7 8 9 9 8 8
2 2 1 4 2 4 2 2 3 3 2 2 3 2 2 3 2 2 0 3 4 4 2 2 2 2 3 4 3 4 4 3 2 4 4 2 2 2 1 1 2 2 3 4 6 7 8 9 8 7 8 8 7 7
2 1 2 4 4 3 2 1 1 3 3 3 3 3 2 1 3 4 3 2 4 4 5 4 4 2 4 4 3 4 3 3 4 2 1 3 2 2 2 3 2 3 4 5 6 7 8 8 8 10 10 10 9 8
4 4 4 5 5 6 6 5 3 4 4 4 5 4 4 5 4 4 2 3 3 4 1 3 4 2 2 2 2 3 4 4 4 3 4 3 3 4 4 4 4 5 7 8 7 8 9 9 8 8 9 10 9 9
3 3 4 3 4 4 4 3 5 3 4 4 4 2 2 3 1 2 1 1 2 4 4 3 2 3 4 4 5 5 5 4 5 5 6 7 7 6 4 4 5 6 8 8 7 8 9 11 9 8 8 8 8 7
Wind_Direction
292 287 292 309 319 326 325 332 329 342 350 348 344 348 354 360 360 62 275 357 87 226 272 214 242 221 306 128 172 288 7 345 345 68 135 271 211 283 31 14 158 163 144 178 91 108 268 15 274 171 246 18 110 112
280 279 278 287 304 316 317 327 328 340 333 342 347 346 348 356 355 47 347 335 86 172 251 270 255 259 218 185 133 319 205 237 225 67 88 255 331 356 152 217 15 170 169 184 172 214 266 316 276 312 294 260 173 138
277 286 278 260 292 306 311 318 320 329 337 345 339 337 342 342 344 343 265 297 39 344 301 340 238 258 196 227 177 179 275 240 1 172 173 185 57 150 79 264 28 347 168 113 75 269 314 316 300 287 311 271 159 173
274 286 291 273 281 295 304 309 315 330 327 331 328 331 331 333 335 328 231 183 103 219 294 281 306 306 177 166 194 210 171 46 102 74 91 49 186 142 247 254 246 213 134 145 291 286 308 248 254 299 349 56 126 159
268 272 267 272 284 279 293 303 312 322 323 325 325 324 327 328 327 326 197 211 185 109 281 283 302 270 283 207 185 197 185 86 44 13 25 283 272 347 317 354 260 191 181 164 214 222 158 239 216 207 235 200 133 113
262 272 268 269 283 273 289 299 306 316 318 319 319 319 320 323 333 23 6 168 199 189 292 317 296 282 305 324 143 167 160 143 118 143 238 271 243 71 79 252 286 307 303 250 262 187 207 299 189 279 232 187 132 122
254 261 255 271 268 283 287 300 304 311 313 314 313 311 311 310 194 174 181 199 160 161 265 313 318 283 298 100 106 112 163 187 149 191 214 188 268 109 307 224 247 310 321 301 179 135 24 344 17 159 133 91 100 95
247 246 247 257 270 286 290 301 306 309 312 314 311 303 292 289 221 299 266 230 172 222 326 322 280 330 360 3 47 107 134 156 219 200 91 162 26 64 256 262 280 314 289 273 260 218 213 286 115 100 101 117 122 124
244 233 237 245 263 281 292 302 309 313 315 316 316 116 87 59 43 306 95 114 149 131 72 319 277 274 347 13 359 6 88 144 264 200 201 118 163 223 249 318 308 333 283 308 242 233 324 301 174 146 131 139 135 143
226 229 235 236 249 274 293 306 316 319 317 312 301 46 107 289 332 47 357 22 356 270 115 234 228 268 69 2 312 30 28 248 278 247 115 133 221 270 263 290 277 299 311 306 276 239 200 214 188 178 186 153 148 153
217 222 234 224 232 263 291 314 327 331 360 37 28 32 282 318 56 6 247 168 166 240 204 233 195 259 298 78 264 124 275 254 268 274 130 230 170 269 297 311 309 294 292 284 265 267 252 244 193 182 182 172 163 162
205 209 216 209 215 246 284 318 340 26 124 246 248 282 317 42 46 306 247 230 217 252 196 208 235 198 273 137 94 308 268 39 244 143 150 182 184 250 298 305 306 297 300 300 262 272 253 234 211 195 187 173 173 159
194 196 204 196 202 228 266 306 325 322 16 49 70 19 63 299 42 206 207 182 315 5 307 340 316 67 353 39 23 67 263 238 350 134 140 113 250 337 293 311 307 308 303 286 278 264 230 233 191 188 191 165 156 153
184 180 184 188 195 218 250 287 321 6 58 111 123 343 154 270 245 205 198 211 242 228 289 285 284 51 307 13 195 259 249 317 315 18 58 294 315 310 316 310 302 305 310 297 286 269 215 163 160 145 143 155 157 152
168 167 175 188 198 216 242 275 314 68 95 129 112 226 221 252 278 254 241 316 270 294 355 358 6 66 303 333 276 331 273 15 21 280 256 297 321 318 310 304 299 299 299 289 283 214 151 122 105 91 110 121 123 130
145 134 187 191 202 212 232 10 51 95 170 194 221 282 280 26 305 10 18 335 356 336 90 52 20 327 250 333 280 235 224 136 213 278 300 302 300 304 303 313 320 317 305 307 59 98 104 109 118 109 94 97 113 120
114 182 192 201 193 187 177 96 86 221 243 240 266 232 224 266 240 262 349 345 317 329 27 64 348 274 311 272 265 351 80 291 286 296 285 284 282 288 297 310 346 357 42 68 80 79 90 87 88 87 96 98 100 102
89 278 115 130 124 114 33 148 230 251 268 266 3 312 331 308 48 16 334 328 26 42 71 265 191 326 239 273 317 17 304 269 278 291 290 294 292 284 308 39 31 38 71 74 76 84 86 89 87 83 89 88 82 79
152 133 129 145 147 123 161 218 176 267 288 343 329 347 358 8 310 261 262 275 227 220 256 195 228 229 245 256 290 303 305 299 296 307 306 321 22 82 74 66 57 62 70 73 74 77 80 84 84 86 85 87 91 93
122 113 126 128 105 90 53 316 99 152 353 278 17 357 303 258 303 330 340 357 306 201 224 223 239 130 274 287 272 274 274 277 276 292 330 11 41 70 71 71 64 78 78 77 70 67 77 75 69 76 81 85 93 93
51 291 35 76 52 80 154 321 14 202 279 78 297 336 293 302 23 17 337 331 315 315 271 256 249 275 269 270 269 276 282 300 73 73 29 75 65 77 77 62 57 68 74 79 84 75 68 74 74 77 81 83 84 81
264 125 45 355 48 31 12 245 160 283 75 237 335 333 304 351 8 11 304 293 285 271 251 282 288 300 298 294 299 41 32 64 60 70 57 68 75 69 72 67 74 77 70 64 71 78 76 77 84 88 90 77 75 86
21 43 23 30 35 40 271 86 63 13 38 332 317 14 41 5 346 309 331 290 275 261 264 270 272 259 240 73 65 55 43 61 67 70 72 73 69 66 69 59 63 87 83 59 68 82 81 74 73 85 75 79 91 94
1 48 43 24 102 285 338 39 30 25 356 360 12 38 14 328 334 25 342 273 275 303 345 30 57 83 67 56 56 51 35 55 69 63 54 80 78 64 66 65 60 54 61 78 74 76 78 87 89 82 79 87 84 88
58 325 80 324 309 40 43 356 2 15 17 320 60 22 355 327 18 27 340 316 343 17 24 42 60 57 71 71 64 49 24 48 80 73 25 55 87 85 69 61 54 40 25 90 79 85 72 72 74 79 77 85 93 85
77 5 49 86 319 84 357 357 13 344 317 74 45 337 326 35 41 19 318 313 327 346 360 15 50 75 61 48 71 49 18 15 81 71 26 30 58 81 79 78 74 36 14 58 82 82 75 72 88 89 79 83 96 100
33 315 346 27 140 105 175 242 268 284 59 62 7 349 43 51 6 299 303 309 313 9 350 46 51 69 69 52 52 42 42 41 70 88 53 39 38 35 71 87 74 42 11 65 76 98 103 97 95 93 89 68 47 50
219 201 187 268 221 198 276 212 156 60 104 143 155 38 91 119 219 256 245 287 300 359 91 72 70 81 75 67 64 75 58 68 79 86 75 55 43 42 41 52 52 66 69 65 89 89 93 100 102 99 85 78 66 60
263 196 209 268 161 201 243 5 82 64 144 139 111 62 83 206 234 272 299 311 322 101 86 90 37 52 67 63 53 53 48 76 87 77 65 39 24 5 357 43 58 63 66 77 50 69 99 92 94 93 94 94 90 85
69 186 307 15 42 34 3 158 150 181 181 110 117 80 30 359 315 328 46 114 108 119 131 115 105 83 101 91 73 40 18 22 57 115 120 134 225 233 233 130 105 91 102 109 109 99 74 89 83 81 89 86 83 86
159 240 32 20 360 21 26 184 86 70 59 59 30 84 83 319 0 26 45 52 108 105 97 85 79 81 126 144 138 115 49 10 28 50 133 127 116 99 84 103 108 107 102 94 100 101 101 91 91 93 92 94 94 97
13 28 59 42 5 340 20 40 49 48 23 43 10 37 29 50 41 333 349 78 91 103 92 137 132 171 160 116 93 83 100 97 70 62 68 82 73 60 64 62 68 78 87 90 95 100 103 103 104 104 105 106 108 110
35 34 47 57 38 43 352 53 30 34 23 39 16 22 66 117 116 271 321 115 183 163 162 173 138 128 146 147 140 121 101 95 91 90 88 78 82 88 82 73 77 83 89 91 96 103 103 108 107 108 113 120 120 121